GFSGL_250_spd_231.txt.gz
Wind_Speed
76 80 83 82 85 86 90 89 92 96 97 97 98 99 102 103 101 104 108 111 114 118 120 120 124 130 130 136 137 142 147 151 152 155 155 158 156 123 121 113 108 101 102
84 87 89 86 87 90 93 93 91 97 98 97 100 99 102 103 106 110 111 116 119 123 122 126 128 134 140 143 147 150 155 160 159 158 162 136 121 119 109 107 104 107 105
88 89 87 88 91 91 93 97 99 99 100 100 99 103 106 109 109 113 118 124 124 126 129 134 137 142 144 148 150 156 161 161 161 147 119 124 113 111 108 109 109 109 108
88 90 89 87 90 91 93 94 98 100 101 103 106 108 109 111 117 122 122 124 127 132 137 140 142 145 150 156 157 163 164 150 125 124 119 116 112 115 115 113 114 118 121
85 89 90 91 92 92 96 99 99 101 104 108 110 111 114 118 122 124 126 131 136 139 142 146 147 152 159 161 166 155 127 124 122 114 115 116 117 119 122 126 127 128 129
86 88 90 92 95 95 98 100 102 104 107 108 110 117 118 122 124 130 134 137 141 143 146 148 151 157 162 159 129 124 119 114 116 116 120 124 126 127 128 128 131 131 131
85 89 92 94 97 100 100 103 105 106 108 113 117 119 122 128 132 136 138 140 144 149 150 154 163 163 134 123 112 113 119 118 123 125 126 129 131 133 133 134 135 133 132
90 92 95 93 93 96 97 101 104 108 115 117 120 124 128 135 137 138 143 147 151 154 156 160 129 121 112 115 114 115 120 125 129 133 137 139 140 139 137 134 131 128 130
85 87 89 92 94 98 104 106 111 115 117 123 130 132 135 139 142 145 147 151 157 157 132 119 111 114 110 116 119 123 128 131 136 139 143 143 140 138 135 132 131 129 126
81 87 89 96 102 107 108 110 113 119 124 126 131 137 140 145 148 150 151 152 132 113 106 109 111 113 121 123 128 131 134 137 141 144 144 139 137 135 135 135 133 130 128
89 96 101 103 105 105 109 116 119 121 125 129 134 139 140 143 145 141 124 106 99 104 109 113 118 122 127 131 135 139 141 143 145 144 136 133 132 132 133 134 133 129 127
96 102 102 101 107 113 115 118 121 127 132 135 136 139 130 115 101 96 96 100 105 110 114 118 123 127 132 137 141 144 146 145 139 134 133 134 133 132 130 130 129 125 124
98 101 102 104 105 108 114 122 130 134 133 124 107 100 90 86 91 96 100 107 112 118 121 126 129 134 138 141 142 143 138 133 134 133 133 131 131 131 130 125 123 117 114
94 100 104 103 111 117 127 129 123 104 94 86 81 83 89 94 99 106 111 117 120 124 128 133 136 140 142 142 140 135 134 132 132 132 132 132 131 128 124 117 112 108 104
98 105 110 119 124 122 115 86 84 78 78 80 86 92 98 103 108 112 117 122 124 129 133 136 140 141 137 132 132 132 132 132 133 135 133 129 126 122 116 109 102 99 95
111 113 109 98 88 79 74 73 75 79 85 90 95 101 106 110 114 119 122 128 130 133 137 140 134 129 129 128 128 129 133 135 134 132 129 123 118 111 106 101 96 93 88
82 74 69 66 67 70 73 78 82 86 91 97 102 106 110 115 120 123 127 132 135 135 129 125 125 124 124 126 128 131 132 132 130 126 121 116 109 102 97 92 88 84 81
57 61 64 67 72 75 80 86 91 95 98 103 108 112 116 120 124 127 128 127 123 121 122 122 120 123 126 129 130 131 131 128 124 118 111 105 100 95 89 84 80 75 72
63 67 70 75 79 84 89 93 97 102 106 110 113 118 122 123 121 119 115 115 117 118 118 120 123 126 129 129 129 129 126 122 116 109 104 98 92 86 80 75 72 69 65
70 75 79 83 87 91 95 99 102 106 110 115 117 117 114 111 111 111 112 114 115 114 118 123 126 127 128 127 126 123 120 113 108 102 95 90 84 77 72 71 67 64 62
77 81 85 88 91 94 98 103 107 110 111 110 107 103 102 105 107 109 109 111 114 117 121 124 124 124 124 123 121 116 110 105 100 94 88 84 80 71 65 68 64 59 56
82 86 89 93 96 98 100 101 103 102 98 96 98 100 102 105 105 107 110 113 117 120 121 123 122 121 121 117 112 108 103 98 92 88 83 79 75 67 59 61 59 53 49
87 89 91 91 91 91 90 88 87 89 91 92 95 99 102 104 106 109 114 118 120 120 121 121 120 117 112 106 103 99 94 90 86 81 77 75 72 64 55 54 52 50 43
77 77 78 79 79 80 83 84 84 86 91 94 96 98 101 105 110 114 116 119 118 118 118 117 113 108 104 99 94 90 86 84 80 76 71 69 68 62 53 50 46 44 40
72 73 74 74 75 78 80 82 85 89 91 93 95 99 104 109 113 114 115 114 114 115 113 108 104 99 97 92 88 84 82 79 76 71 66 65 63 58 51 46 43 40 35
66 68 70 73 75 76 79 83 86 87 90 93 97 101 108 111 113 112 112 113 113 109 103 100 96 93 90 86 83 80 77 74 71 66 61 57 57 54 49 44 38 35 31

GFSGL_250_spd_234.txt.gz
Wind_Speed
80 79 75 73 73 78 83 84 86 85 87 87 93 92 97 101 104 106 108 106 108 111 112 116 121 125 129 131 132 138 143 146 148 151 154 154 154 157 164 159 126 117 112
85 77 72 72 74 83 86 83 87 89 92 94 96 98 102 103 107 105 107 109 112 115 121 126 128 132 134 135 141 144 149 149 154 155 155 162 160 166 142 125 117 114 117
73 75 77 76 77 76 77 83 88 89 93 97 99 100 102 104 105 107 110 113 119 125 125 130 132 134 137 144 147 150 152 156 156 160 164 163 163 131 126 119 117 120 122
74 70 74 74 78 82 87 85 87 89 92 96 101 101 103 104 108 111 116 121 125 130 131 133 136 139 145 146 152 155 155 160 160 164 159 147 120 123 122 124 126 129 132
65 73 77 76 79 81 86 89 94 96 95 99 100 102 105 110 115 120 123 128 130 132 134 138 140 144 151 151 157 159 163 164 162 153 129 122 121 122 129 130 134 137 139
78 71 76 79 80 85 90 92 93 91 95 98 106 109 113 117 119 118 122 127 132 135 138 143 146 150 156 160 161 161 161 147 126 122 124 125 131 131 134 138 142 141 142
72 73 78 82 83 86 86 92 97 100 102 104 107 110 112 116 120 124 131 131 137 142 145 147 153 159 162 157 154 138 125 124 125 130 131 134 138 140 142 144 145 146 144
72 76 77 80 84 86 87 92 94 97 101 104 108 114 118 120 126 130 133 138 142 147 151 153 155 155 150 133 123 120 123 126 133 137 141 143 144 145 145 145 143 138 135
71 75 76 79 83 86 88 90 95 100 105 108 114 116 120 127 132 137 138 144 147 147 148 153 140 128 123 117 120 126 130 135 140 143 146 147 148 148 144 139 137 137 133
69 78 79 78 79 84 90 97 103 105 110 111 113 121 126 130 135 137 140 138 147 152 138 125 121 114 120 125 128 133 137 140 143 146 149 149 146 141 139 139 135 131 130
71 77 80 85 91 94 96 99 104 109 112 116 123 126 129 132 135 141 141 146 138 120 114 113 119 124 129 134 138 140 143 146 147 146 141 136 135 137 134 132 133 130 127
78 79 85 89 94 97 101 106 110 114 115 119 124 126 131 132 139 143 126 113 109 111 117 122 125 130 135 140 143 146 148 145 140 137 136 136 134 133 131 129 127 124 122
83 86 89 94 99 101 104 109 113 115 117 124 127 129 135 131 116 108 106 109 115 119 123 129 132 136 140 143 146 144 139 135 135 136 134 134 134 132 128 123 121 117 114
85 90 93 97 100 101 103 107 110 113 124 132 132 120 105 101 103 106 111 116 123 126 130 134 137 140 142 141 137 136 136 135 132 132 134 133 130 127 122 117 113 107 102
87 89 91 90 93 103 106 108 117 127 121 102 98 97 100 104 109 114 119 122 127 131 135 138 140 138 134 133 134 134 132 131 132 132 131 127 124 118 114 108 104 98 93
83 88 91 96 106 107 113 116 98 90 89 93 97 103 107 112 117 121 126 128 129 133 136 134 130 128 130 130 129 129 132 132 132 129 126 122 118 111 105 103 97 90 85
100 105 108 111 111 106 82 80 84 89 95 99 104 108 113 117 121 124 127 131 130 127 124 124 125 126 125 125 128 130 130 130 127 124 121 118 110 104 98 93 91 85 79
90 87 85 77 73 75 81 88 92 96 101 106 111 114 117 119 122 123 122 119 120 121 121 120 121 121 125 127 128 129 129 127 124 119 113 108 103 96 90 88 86 77 74
60 63 68 74 79 83 88 93 98 102 105 109 112 115 115 113 111 111 113 115 116 116 117 118 120 123 126 127 126 126 125 122 118 111 105 100 93 87 85 82 80 75 69
66 70 76 81 85 90 93 96 98 101 104 104 103 104 105 106 108 111 110 109 110 111 115 119 122 123 123 123 124 122 118 113 108 103 98 92 86 80 78 78 74 69 66
72 76 80 83 85 87 89 90 89 90 93 96 97 99 102 104 105 104 104 103 106 111 117 120 120 120 121 120 118 113 107 104 100 95 91 86 81 76 74 73 67 62 60
72 72 74 76 78 80 81 84 86 88 90 92 94 95 94 94 94 96 100 105 110 113 115 116 117 117 115 112 108 103 99 96 93 89 85 81 76 73 69 68 63 59 54
64 68 70 71 72 75 77 80 83 84 84 84 85 86 89 92 94 98 103 108 111 112 111 111 113 112 108 103 98 95 93 91 87 83 81 76 73 69 65 63 58 54 50
69 68 68 69 71 71 72 72 73 75 77 80 84 87 91 93 98 103 106 109 110 111 111 110 107 103 100 96 91 89 86 84 81 79 75 72 69 64 60 59 53 45 43
63 61 60 62 63 64 65 69 74 79 82 85 87 91 94 97 103 105 108 108 109 110 110 106 99 94 92 90 87 84 81 78 75 73 72 69 64 60 55 52 48 40 38
58 59 59 61 65 68 72 74 77 81 84 86 89 93 96 101 104 107 107 107 108 108 105 99 95 90 87 84 80 77 74 72 71 68 66 62 58 54 48 45 43 38 35

GFSGL_250_spd_237.txt.gz
Wind_Speed
80 88 86 87 84 82 83 82 77 79 82 80 75 83 87 88 90 94 99 103 110 110 110 113 113 119 124 123 125 130 136 141 142 145 149 153 156 162 162 159 165 159 138
68 79 74 81 87 81 84 75 75 79 77 82 86 90 93 94 96 100 105 108 108 111 114 117 119 126 122 130 134 137 140 144 149 152 154 158 159 164 164 161 149 134 128
66 70 74 59 58 67 68 68 75 79 79 83 84 91 96 102 104 105 108 108 111 113 114 118 125 123 130 132 136 141 146 149 155 159 159 161 165 162 159 143 134 126 129
56 56 59 61 63 68 72 73 76 80 87 86 92 95 97 102 105 107 109 110 112 118 121 123 124 129 134 137 144 148 153 156 160 162 164 163 160 154 143 132 129 134 137
55 57 58 63 66 70 72 75 80 81 87 93 92 94 95 101 103 106 110 113 114 120 126 128 129 134 141 144 148 153 158 156 164 160 158 153 145 137 135 135 138 142 145
63 67 67 69 70 76 76 83 83 84 86 92 97 99 105 105 102 108 112 117 119 125 132 130 135 143 147 152 157 162 162 165 156 157 150 138 138 141 141 146 148 149 149
68 67 70 74 76 81 86 84 87 87 87 93 101 105 106 105 105 112 119 121 125 128 133 137 143 147 151 155 160 163 155 155 147 142 138 141 145 149 151 151 153 152 148
66 72 79 80 79 83 83 86 90 91 92 95 101 101 101 103 108 117 121 125 128 134 140 145 148 152 156 156 163 158 145 138 137 141 145 150 153 155 155 153 148 144 141
74 76 76 82 84 84 86 90 90 87 93 99 101 102 106 113 117 122 127 132 141 141 143 150 153 152 151 160 143 135 136 140 144 149 153 155 157 156 151 146 143 139 131
78 74 77 80 80 85 87 86 88 93 95 99 99 105 111 117 121 125 133 136 142 146 149 147 151 158 159 135 135 139 144 147 151 153 155 155 152 149 147 144 137 133 131
72 78 81 85 88 85 88 84 81 89 94 100 105 110 117 123 129 132 137 141 143 146 149 152 148 131 131 137 143 146 150 153 155 152 149 147 145 142 138 135 133 131 127
70 72 79 82 90 88 85 88 94 100 105 110 115 118 120 125 130 135 139 138 146 146 143 128 131 135 140 144 148 152 153 150 147 147 146 143 138 133 132 131 130 124 119
74 75 75 78 79 81 86 90 95 99 106 110 116 122 127 132 134 136 143 148 142 122 127 132 137 141 145 149 151 149 146 145 145 144 139 136 134 132 129 125 121 118 113
70 73 74 79 84 89 93 97 104 108 115 119 120 127 129 134 137 143 128 113 126 129 133 139 143 147 149 147 145 143 143 142 139 136 135 135 133 128 122 119 115 108 102
72 74 76 81 85 92 99 104 108 112 116 121 127 130 133 124 111 112 118 125 130 135 139 142 143 143 140 140 140 139 137 134 136 136 134 132 128 123 120 112 107 101 93
77 80 87 90 94 99 102 107 112 118 123 120 98 95 103 109 114 120 126 130 134 136 135 135 134 135 136 135 134 132 134 135 135 132 129 126 123 118 112 106 98 93 87
83 87 92 95 100 103 107 107 93 84 89 96 101 107 111 116 122 126 127 128 129 130 130 130 130 130 129 128 130 130 131 130 128 125 122 119 114 109 102 97 91 86 84
86 91 98 95 86 76 74 82 88 93 97 102 107 110 112 114 116 118 119 120 121 121 123 124 124 125 126 126 127 126 125 123 122 119 115 110 104 99 95 91 85 80 78
68 68 67 69 76 80 85 91 96 99 101 99 99 101 103 106 108 110 111 113 114 116 118 120 121 121 122 121 121 121 120 118 116 112 106 102 96 92 89 84 79 78 74
61 67 73 78 83 86 90 93 90 89 90 91 91 93 97 101 103 105 106 107 110 111 111 113 115 116 117 119 119 119 116 112 108 104 98 94 89 86 82 77 73 72 68
70 75 79 80 78 74 74 78 81 81 82 86 90 92 93 94 96 98 101 100 100 103 107 111 114 114 115 117 117 115 111 105 100 96 92 87 82 80 76 72 68 65 61
67 64 62 63 66 72 74 75 77 80 81 80 80 83 87 88 89 89 92 96 101 105 108 111 112 112 113 114 112 107 102 97 94 88 84 80 77 73 71 66 62 61 58
63 66 67 70 71 69 70 71 74 73 72 74 76 78 79 81 85 89 95 100 105 108 110 110 108 109 109 107 104 99 94 90 85 81 79 75 71 69 66 61 57 56 55
66 67 67 65 62 62 64 66 68 68 70 72 74 77 81 85 89 94 98 102 106 107 107 107 106 105 101 98 95 92 88 83 79 77 75 71 67 64 61 57 54 53 50
71 69 66 64 64 66 68 68 69 72 76 78 81 84 86 88 91 95 99 102 105 106 106 106 103 98 95 90 88 84 80 77 75 73 70 67 64 60 57 55 52 49 45
71 69 69 67 71 71 75 75 76 77 79 81 83 85 87 91 94 98 101 104 105 104 105 104 100 94 89 86 82 78 74 72 70 67 64 62 58 55 53 51 46 44 41

GFSGL_250_spd_240.txt.gz
Wind_Speed
81 83 83 87 87 84 79 74 75 77 76 78 80 77 79 82 77 79 88 90 92 95 100 106 109 112 118 117 119 124 127 130 135 138 141 146 146 150 153 155 161 165 167
79 81 79 78 80 75 65 62 65 61 59 65 70 69 74 78 84 86 90 92 98 102 103 108 113 117 117 119 124 127 133 139 140 140 147 149 152 156 160 166 167 170 171
75 76 77 77 73 65 58 53 57 60 64 68 72 73 79 82 82 87 93 99 105 109 112 115 121 122 122 126 128 133 137 139 143 150 151 155 160 163 167 169 171 171 169
78 78 73 72 66 58 62 61 63 68 69 72 75 81 87 89 91 97 99 102 108 111 114 118 122 126 127 130 133 138 142 146 151 155 158 162 164 169 172 173 168 166 150
77 72 66 62 55 56 58 62 69 77 77 82 84 90 97 96 99 102 104 109 111 114 115 120 125 129 131 138 141 146 148 152 155 158 164 167 175 176 174 173 163 153 157
70 64 58 53 62 66 69 66 73 78 82 88 89 94 93 97 100 104 106 109 114 119 119 123 127 132 135 138 143 149 154 158 163 164 170 172 177 172 170 159 157 161 157
50 52 52 60 67 66 70 70 77 83 84 86 88 94 98 101 107 109 110 115 116 118 124 130 135 139 141 144 150 157 162 162 169 172 177 176 175 167 156 161 160 156 151
45 57 62 62 66 73 73 78 79 85 87 88 94 98 102 105 108 112 115 116 119 122 130 138 141 146 148 153 156 158 165 170 174 176 175 171 162 162 163 160 152 150 147
57 61 63 67 67 69 75 81 85 87 88 94 98 101 105 106 113 116 115 118 123 127 135 139 143 144 152 158 162 165 170 168 170 172 161 158 164 162 156 152 150 144 136
70 64 70 75 76 75 77 79 83 86 87 89 94 96 102 107 113 115 121 120 126 131 137 147 152 152 155 160 165 169 169 170 161 157 165 162 160 155 152 147 141 136 129
51 56 57 67 75 81 82 83 87 89 95 97 96 103 110 113 113 116 124 124 130 135 141 145 150 158 160 164 170 169 154 153 161 159 157 153 150 146 141 138 134 128 126
58 63 69 65 70 76 79 84 89 92 98 102 99 101 107 114 114 119 125 134 139 143 149 152 158 161 169 167 154 153 157 155 155 154 150 146 141 139 134 132 131 127 122
59 59 67 75 78 89 94 91 93 95 97 100 108 113 113 114 121 129 135 141 144 148 153 156 160 155 144 151 152 149 150 151 150 147 142 138 137 135 135 132 126 120 116
68 72 67 76 79 79 82 89 95 99 103 103 108 116 122 124 126 130 134 140 143 149 153 147 139 146 146 144 144 147 147 142 138 135 136 137 136 133 128 122 118 111 104
61 65 70 73 79 85 87 89 95 100 106 111 116 119 120 126 132 136 142 146 142 131 137 139 138 138 140 142 142 139 136 133 135 136 136 133 128 124 122 116 109 102 96
65 68 72 77 83 89 94 98 102 106 110 114 118 123 127 134 138 135 127 127 132 130 130 131 133 134 134 131 130 134 136 134 132 131 128 123 120 119 112 107 101 95 89
69 71 75 84 89 95 100 104 107 114 116 122 124 129 127 111 117 124 122 121 121 123 124 124 125 126 127 130 132 132 129 125 122 121 118 119 114 109 104 100 95 89 85
72 78 82 89 94 94 101 101 96 96 95 95 100 109 113 111 107 108 110 112 115 116 116 118 122 123 125 125 122 118 120 120 116 115 114 110 105 100 97 94 89 82 76
74 80 88 93 96 84 79 85 89 95 99 100 97 95 95 96 96 99 104 109 111 114 116 118 117 116 115 115 114 116 117 115 113 111 107 102 97 93 90 87 81 74 70
76 76 67 70 75 79 84 86 85 81 79 81 85 86 88 93 98 101 101 103 105 106 107 107 109 110 109 110 113 114 114 113 110 104 99 95 90 87 84 80 74 69 65
58 62 68 72 74 73 69 70 73 77 77 78 80 83 87 88 90 92 95 98 100 103 103 104 106 108 109 112 111 112 112 109 103 99 93 88 84 81 77 72 68 62 57
62 64 66 66 68 68 69 71 73 74 73 72 72 74 78 81 86 90 91 94 97 99 101 102 105 107 108 108 108 109 107 102 98 93 88 83 79 75 71 66 62 56 52
60 60 61 66 69 71 72 74 73 70 73 73 75 79 80 82 84 86 90 93 97 99 101 102 104 105 105 106 105 102 99 95 91 86 82 79 75 70 67 62 56 51 49
58 59 66 69 72 74 74 75 77 81 84 85 87 88 87 88 88 90 91 95 97 101 103 105 104 103 105 104 100 96 91 87 85 81 77 73 69 65 62 57 51 47 46
59 63 72 73 77 79 78 80 83 89 91 92 92 90 90 90 91 94 95 98 102 105 107 105 104 104 103 100 94 89 85 81 78 76 72 69 66 61 57 52 48 46 44
65 70 75 77 82 85 85 88 91 96 94 96 93 92 91 92 92 94 97 102 106 107 106 105 105 103 101 95 90 84 80 77 74 71 67 65 61 56 52 49 45 43 42

GFSGL_250_spd_246.txt.gz
Wind_Speed
87 86 85 81 78 75 71 69 70 69 70 71 70 69 70 71 73 73 67 67 72 77 81 84 88 91 95 99 102 109 111 112 116 121 127 131 132 136 143 146 147 154 157
85 84 84 81 77 75 74 74 72 71 71 69 70 70 73 70 73 69 68 72 77 82 83 87 91 96 99 103 107 110 117 119 124 130 133 138 142 141 144 153 155 159 164
80 79 78 80 78 76 76 76 76 74 74 72 71 74 71 73 73 72 70 75 82 89 90 96 100 99 103 107 112 118 121 125 129 132 135 138 143 150 153 158 162 165 170
78 75 73 74 78 79 78 70 75 73 73 72 72 73 82 80 78 79 78 82 84 88 92 94 98 105 106 107 113 120 125 129 133 137 143 144 148 154 159 161 163 169 176
73 72 71 71 69 71 73 73 70 63 61 66 69 73 71 78 78 80 79 82 86 91 93 99 103 107 113 118 120 124 127 131 132 138 144 147 152 158 164 170 168 178 187
61 64 68 63 63 64 65 66 63 57 67 60 62 68 76 79 83 86 91 86 89 94 99 106 110 113 119 121 125 130 131 134 140 145 149 155 160 169 171 177 182 188 190
58 59 59 61 63 53 61 60 56 51 56 62 68 76 78 85 88 92 87 88 95 101 104 109 112 116 120 121 129 133 137 138 145 154 158 162 166 173 180 182 185 193 193
56 56 57 61 60 62 61 52 51 63 70 73 79 80 85 87 84 85 85 95 101 105 102 105 111 115 121 127 131 134 142 145 153 159 163 169 175 180 186 189 184 172 172
52 54 57 58 59 61 58 57 62 69 74 78 82 86 86 83 82 83 97 100 102 105 111 116 120 123 126 132 137 143 149 156 161 170 174 179 182 185 183 178 175 163 160
47 51 54 58 58 59 60 64 70 69 71 75 79 78 76 78 87 92 98 104 108 113 115 119 123 126 132 138 144 151 157 162 168 174 180 185 187 181 172 166 160 154 152
42 45 51 50 49 52 53 60 64 75 78 74 72 74 79 83 89 96 101 99 105 112 117 124 129 133 137 143 150 157 163 169 171 175 179 168 165 166 158 153 153 147 144
34 36 39 43 52 54 56 61 65 65 65 72 76 82 86 93 94 100 103 106 111 115 121 128 133 139 145 153 159 164 169 173 174 168 161 160 154 152 148 147 144 137 135
30 37 41 45 47 45 48 51 55 65 72 78 88 91 92 92 96 102 105 110 116 123 128 134 141 145 152 158 163 167 166 160 156 157 147 150 148 144 139 134 134 129 124
20 27 35 38 42 47 52 57 61 65 71 75 81 87 92 93 100 107 110 114 120 125 133 136 144 151 155 157 161 156 153 154 142 144 141 134 130 128 128 125 122 121 117
27 34 38 41 43 50 55 59 68 73 75 79 83 87 91 98 104 112 119 124 129 134 138 140 145 147 148 145 147 145 139 139 134 126 122 121 123 124 121 118 115 111 103
33 36 40 46 53 57 62 66 72 76 82 87 95 99 104 111 117 122 125 128 134 139 136 136 138 138 138 131 131 132 129 122 118 118 120 121 121 117 115 113 107 99 94
44 47 49 54 59 62 68 72 76 83 88 93 100 107 113 116 119 123 126 123 121 125 125 126 123 120 121 120 121 119 116 115 117 118 121 118 114 113 109 102 97 92 89
51 56 61 65 69 74 80 85 90 95 99 104 106 109 110 107 104 107 112 113 113 113 110 112 111 111 111 112 113 113 114 114 117 119 116 113 111 106 100 95 91 86 84
63 66 70 72 75 79 83 87 91 93 89 87 87 90 95 99 101 102 101 102 105 108 109 108 106 106 107 109 112 114 114 115 118 116 113 111 105 98 96 90 85 81 79
63 65 69 70 67 64 65 68 73 77 81 83 85 88 93 95 96 96 97 101 107 107 107 109 109 108 110 112 115 115 116 116 116 113 113 108 101 96 92 86 81 78 74
51 52 57 61 64 66 68 72 75 79 81 83 87 90 90 91 93 95 99 104 108 109 109 110 110 111 112 113 115 116 117 116 113 113 112 104 98 94 89 82 79 74 69
53 58 61 64 67 70 74 76 78 79 84 87 89 93 94 94 94 98 103 109 112 111 110 110 112 112 112 114 115 115 115 114 112 112 108 102 95 91 86 81 77 71 66
61 63 65 68 71 73 75 79 80 84 86 90 94 96 96 93 96 102 107 111 113 113 112 111 111 113 115 117 116 117 116 114 113 109 103 98 92 87 82 79 74 69 65
64 66 69 72 73 74 78 82 85 85 89 93 96 96 96 95 100 104 109 111 113 113 114 113 112 114 116 117 118 118 118 117 114 106 100 94 90 84 79 76 70 65 60
69 71 74 75 76 79 81 83 86 88 89 93 94 92 94 98 102 106 109 112 113 113 115 114 114 116 117 118 120 120 119 118 110 101 95 91 84 79 74 70 64 61 56
74 76 76 76 77 80 82 83 85 88 89 90 91 93 96 100 105 106 110 113 114 115 116 114 115 117 117 119 121 121 120 114 105 98 95 91 84 77 72 68 63 58 54